SCP
0 0 0 0 0 0 0 0 0 0 0 0 0 0 0 0 0 0 0 0 0 0 0 0 0 0 0 0 0 0 0 0 0 0 0 0 0 0 0 0 0 0 0 0 0 0 0 0 0 0 0 0 0 0
0 0 0 0 0 0 0 0 0 0 0 0 0 0 0 0 0 0 0 0 0 0 0 0 0 0 0 0 0 0 0 0 0 0 0 0 0 0 0 0 0 0 0 0 0 0 0 0 0 0 0 0 0 0
0 0 0 0 0 0 0 0 0 0 0 0 0 0 0 0 0 0 0 0 0 0 0 0 0 0 0 0 0 0 0 0 0 0 0 0 0 0 0 0 0 0 0 0 0 0 0 0 0 0 0 0 0 0
0 0 0 0 0 0 0 0 0 0 0 0 0 0 0 0 0 0 0 0 0 0 0 0 0 0 0 0 0 0 0 0 0 0 0 0 0 0 0 0 0 0 0 0 0 0 0 0 0 0 0 0 0 0
0 0 0 0 0 0 0 0 0 0 0 0 0 0 0 0 0 0 0 0 0 0 0 0 0 0 0 0 0 0 0 0 0 0 0 0 0 0 0 0 0 0 0 0 0 0 0 0 0 0 0 0 0 0
0 0 0 0 0 0 0 0 0 0 0 0 0 0 0 0 0 0 0 0 0 0 0 0 0 0 0 0 0 0 0 0 0 0 0 0 0 0 0 0 0 0 0 0 0 0 0 0 0 0 0 0 0 0
0 0 0 0 0 0 0 0 0 0 0 0 0 0 0 0 0 0 0 0 0 0 0 0 0 0 0 0 0 0 0 0 0 0 0 0 0 0 0 0 0 0 0 0 0 0 0 0 0 0 0 0 0 0
0 0 0 0 0 0 0 0 0 0 0 0 0 0 0 0 0 0 0 0 0 0 0 0 0 0 0 0 0 0 0 0 0 0 0 0 0 0 0 0 0 0 0 0 0 0 0 0 0 0 0 0 0 0
0 0 0 0 0 0 0 0 0 0 0 0 0 0 0 0 0 0 0 0 0 0 0 0 0 0 0 0 0 0 0 0 0 0 0 0 0 0 0 0 0 0 0 0 0 0 0 0 0 0 0 0 0 0
0 0 0 0 0 0 0 0 0 0 0 0 0 0 0 0 0 0 0 0 0 0 0 0 0 0 0 0 0 0 0 0 0 0 0 0 0 0 0 0 0 0 0 0 0 0 0 0 0 0 0 0 0 0
0 0 0 0 0 0 0 0 0 0 0 0 0 0 0 0 0 0 0 0 0 0 0 0 0 0 0 0 0 0 0 0 0 0 0 0 0 0 0 0 0 0 0 0 0 0 0 0 0 0 0 0 0 0
0 0 0 0 0 0 0 0 0 0 0 0 0 0 0 0 0 0 0 0 0 0 0 0 0 0 0 0 0 0 0 0 0 0 0 0 0 0 0 0 0 0 0 0 0 0 0 0 0 0 0 0 0 0
0 0 0 0 0 0 0 0 0 0 0 0 0 0 0 0 0 0 0 0 0 0 0 0 0 0 0 0 0 0 0 0 0 0 0 0 0 0 0 0 0 0 0 0 0 0 0 0 0 0 0 0 0 0
0 0 0 0 0 0 0 0 0 0 0 0 0 0 0 0 0 0 0 0 0 0 0 0 0 0 0 0 0 0 0 0 0 0 0 0 0 0 0 0 0 0 0 0 0 0 0 0 0 0 0 0 0 0
0 0 0 0 0 0 0 0 0 0 0 0 0 0 0 0 0 0 0 0 0 0 0 0 0 0 0 0 0 0 0 0 0 0 0 0 0 0 0 0 0 0 0 0 0 0 0 0 0 0 0 0 0 0
0 0 0 0 0 0 0 0 0 0 0 0 0 0 0 0 0 0 0 0 0 0 0 0 0 0 0 0 0 0 0 0 0 0 0 0 0 0 0 0 0 0 0 0 0 0 0 0 0 0 0 0 0 0
0 0 0 0 0 0 0 0 0 0 0 0 0 0 0 0 0 0 0 0 0 0 0 0 0 0 0 0 0 0 0 0 0 0 0 0 0 0 0 0 0 0 0 0 0 0 0 0 0 0 0 0 0 0
0 0 0 0 0 0 0 0 0 0 0 0 0 0 0 0 0 0 0 0 0 0 0 0 0 0 0 0 0 0 0 0 0 0 0 0 0 0 0 0 0 0 0 0 0 0 0 0 0 0 0 0 0 0
0 0 0 0 0 0 0 0 0 0 0 0 0 0 0 0 0 0 0 0 0 0 0 0 0 0 0 0 0 0 0 0 0 0 0 0 0 0 0 0 0 0 0 0 0 0 0 0 0 0 0 0 0 0
0 0 0 0 0 0 0 0 0 0 0 0 0 0 0 0 0 0 0 0 0 0 0 0 0 0 0 0 0 0 0 0 0 0 0 0 0 0 0 0 0 0 0 0 0 0 0 0 0 0 0 0 0 0
0 0 0 0 0 0 0 0 0 0 0 0 0 0 0 0 0 0 0 0 0 0 0 0 0 0 0 0 0 0 0 0 0 0 0 0 0 0 0 0 0 0 0 0 0 0 0 0 0 0 0 0 0 0
0 0 0 0 0 0 0 0 0 0 0 0 0 0 0 0 0 0 0 0 0 0 0 0 0 0 0 0 0 0 0 0 0 0 0 0 0 0 0 0 0 0 0 0 0 0 0 0 0 0 0 0 0 0
0 0 0 0 0 0 0 0 0 0 0 0 0 0 0 0 0 0 0 0 0 0 0 0 0 0 0 0 0 0 0 0 0 0 0 0 0 0 0 0 0 0 0 0 0 0 0 0 0 0 0 0 0 0
0 0 0 0 0 0 0 0 0 0 0 0 0 0 0 0 0 0 0 0 0 0 0 0 0 0 0 0 0 0 0 0 0 0 0 0 0 0 0 0 0 0 0 0 0 0 0 0 0 0 0 0 0 0
0 0 0 0 0 0 0 0 0 0 0 0 0 0 0 0 0 0 0 0 0 0 0 0 0 0 0 0 0 0 0 0 0 0 0 0 0 0 0 0 0 0 0 0 0 0 0 0 0 0 0 0 0 0
-0 0 0 0 0 0 0 0 0 0 0 0 0 0 0 0 0 0 0 0 0 0 0 0 0 0 0 0 0 0 0 0 0 0 0 0 0 0 0 0 0 0 0 0 0 0 0 0 0 0 0 0 0 0
-0 0 0 0 0 0 0 0 0 0 0 -0 0 0 0 0 0 0 0 0 0 0 0 0 0 0 0 0 0 0 0 0 0 0 0 0 0 0 0 0 0 0 0 0 0 0 0 0 0 0 0 0 0 0
0 0 0 0 0 0 0 0 0 0 0 0 0 0 0 0 0 0 0 0 0 0 0 0 0 0 0 0 0 0 0 0 0 0 0 0 0 0 0 0 0 0 0 0 0 0 0 0 0 0 0 0 0 0
0 0 0 0 0 0 0 0 0 0 0 0 0 0 0 0 0 0 0 0 0 0 0 0 0 0 0 0 0 0 0 0 0 0 0 0 0 0 0 0 0 0 0 0 0 0 0 0 0 0 0 0 0 0
0 0 0 0 0 0 0 0 0 0 0 0 0 0 0 0 0 0 0 0 0 0 0 0 0 0 0 0 0 0 0 0 0 0 0 0 0 0 0 0 0 0 0 0 0 0 0 0 0 0 0 0 0 0
0 0 0 0 0 0 0 0 0 0 0 0 0 0 0 0 0 0 0 0 0 0 0 0 0 0 0 0 0 0 0 0 0 0 0 0 0 0 0 0 0 0 0 0 0 0 0 0 0 0 0 0 0 0
0 0 0 0 0 0 0 0 0 0 0 0 0 0 0 0 0 0 0 0 0 0 0 0 0 0 0 0 0 0 0 0 0 0 0 0 0 0 0 0 0 0 0 0 0 0 0 0 0 0 0 0 0 0
0 0 0 0 0 0 0 0 0 0 0 0 0 0 0 0 0 0 0 0 0 0 0 0 0 0 0 0 0 0 0 0 0 0 0 0 0 0 0 0 0 0 0 0 0 0 0 0 0 0 0 0 0 0
Wind_Speed_500mb
52 55 54 53 45 52 40 44 42 43 43 43 44 40 42 44 45 47 40 31 38 14 21 19 21 14 19 25 9 20 12 2 5 5 8 8 7 11 7 9 13 14 13 8 4 4 14 22 8 14 17 15 13 25
63 53 50 52 53 54 54 51 49 50 48 44 49 44 52 47 45 49 48 39 38 27 12 17 41 34 30 40 34 48 10 16 27 6 2 5 1 3 8 7 2 4 14 10 18 13 11 35 17 28 24 22 24 30
63 57 52 47 42 48 51 55 55 52 47 44 40 41 45 54 42 49 51 51 41 48 36 50 48 43 44 42 36 23 14 24 22 16 15 6 6 6 7 8 3 10 8 8 8 10 20 42 51 52 53 52 51 47
58 56 64 59 54 42 40 39 47 50 53 50 46 44 43 42 42 43 53 53 49 14 11 24 32 47 48 59 55 48 35 36 24 27 8 6 6 17 7 7 12 17 13 7 10 25 39 53 66 69 68 62 63 57
58 53 53 56 58 55 51 48 41 34 35 42 47 49 44 47 47 48 54 69 64 51 6 7 17 43 40 61 72 61 52 45 41 13 4 7 11 7 0 3 12 32 29 18 23 46 33 42 64 60 52 52 49 44
58 56 53 53 46 47 47 44 43 40 42 44 41 38 35 45 57 47 27 70 76 74 20 9 22 34 44 52 61 75 81 54 45 18 9 12 16 25 8 8 42 62 65 72 54 73 69 72 70 69 64 61 55 53
60 58 54 47 49 46 44 43 42 39 37 37 37 38 39 37 34 42 10 16 33 73 22 6 7 22 55 62 67 65 64 56 38 19 19 18 14 28 5 12 52 57 64 69 75 74 53 76 53 69 63 64 63 55
60 55 47 42 40 41 44 45 48 44 39 38 41 41 40 37 38 49 54 47 38 43 16 5 3 6 35 25 19 39 29 39 36 25 15 18 17 16 12 34 64 72 70 72 77 74 76 76 69 66 59 53 54 55
56 44 39 39 36 35 35 31 30 30 33 34 38 37 36 43 38 34 35 31 35 33 7 8 9 8 25 9 16 15 25 9 19 11 10 19 8 14 22 48 62 68 65 74 75 66 64 64 68 67 63 56 53 53
36 37 34 33 31 30 27 26 24 23 28 27 31 22 16 24 35 23 25 21 33 27 24 6 20 10 29 16 8 10 9 5 7 9 16 11 18 65 60 73 74 70 70 62 54 57 61 61 57 55 53 46 45 46
30 32 30 26 23 23 23 29 30 26 28 26 19 21 17 31 35 22 15 15 16 5 20 20 51 10 28 8 7 18 7 7 8 9 14 8 10 38 78 79 95 90 75 65 58 59 60 54 40 39 43 42 40 39
13 20 27 29 28 26 26 32 38 39 23 25 14 19 27 17 14 13 11 6 8 13 12 14 21 36 23 16 7 15 10 10 12 12 9 8 21 59 61 76 80 80 77 68 63 56 49 43 37 30 30 33 35 34
20 20 22 26 30 32 31 33 32 41 34 20 10 9 8 14 11 11 12 6 3 6 18 16 3 27 17 19 6 11 16 13 15 11 9 12 23 45 62 67 69 61 54 49 47 43 37 32 29 28 28 28 28 28
17 20 23 22 23 27 30 34 36 37 34 18 14 13 11 7 8 10 9 10 17 15 40 36 13 8 13 10 6 8 8 7 11 9 15 8 36 45 49 58 54 54 47 41 37 34 31 28 24 22 23 24 23 23
14 12 15 17 20 21 25 30 36 42 25 14 14 10 10 10 5 4 10 10 20 28 40 12 6 15 5 8 9 5 6 8 11 11 8 15 41 48 45 44 47 42 39 37 33 30 26 23 20 19 18 18 17 19
1 6 6 15 20 20 21 24 29 43 16 14 14 5 3 6 6 3 8 7 18 31 20 7 7 8 9 7 12 12 11 13 9 7 4 4 16 24 31 30 29 28 28 29 27 24 21 18 14 13 12 12 16 21
17 11 16 20 13 19 20 24 17 13 12 14 4 15 15 10 5 4 6 3 16 23 6 5 9 13 4 5 6 8 8 4 5 4 9 12 13 20 25 27 27 26 25 21 18 16 13 11 9 9 11 13 17 20
24 20 19 22 19 20 11 11 14 6 3 1 6 8 12 14 11 8 13 15 18 15 5 6 6 10 8 10 6 2 7 10 11 7 4 8 13 19 20 21 21 19 17 16 14 11 7 4 5 7 9 12 13 15
16 7 15 11 20 25 14 13 10 7 4 2 10 11 6 5 13 13 11 13 19 10 5 3 7 4 3 5 5 7 8 8 10 10 11 13 14 15 18 19 19 20 19 18 15 10 5 3 3 5 7 8 8 8
17 10 19 11 9 17 9 7 8 9 4 4 7 9 5 3 5 5 4 7 7 3 4 2 4 5 7 2 7 5 3 9 15 17 13 14 15 16 17 16 16 16 15 14 11 9 6 3 1 2 3 4 5 7
18 19 21 9 6 5 9 6 9 8 9 8 11 6 4 7 8 9 7 6 6 11 5 13 10 7 4 2 5 8 8 12 8 4 6 22 23 20 18 18 17 14 10 9 8 9 10 8 5 3 2 3 4 6
19 17 12 13 5 7 11 12 11 8 6 8 6 6 8 3 7 9 8 14 11 9 9 11 9 7 5 3 10 12 13 15 13 13 11 15 22 21 18 14 11 11 12 11 11 10 7 5 3 3 3 3 3 4
20 15 7 8 7 11 7 8 6 6 4 2 4 4 4 5 7 6 8 11 10 20 16 9 4 2 3 8 10 10 10 11 10 11 13 15 17 16 14 14 14 12 10 9 7 5 4 5 6 5 3 1 2 4
12 10 13 11 16 5 5 9 7 6 6 6 5 4 5 5 12 6 6 7 16 27 17 10 9 6 6 6 7 7 9 11 11 16 19 16 17 20 20 16 13 10 7 4 4 5 7 8 8 5 3 4 5 7
8 20 15 12 15 9 9 7 8 8 5 4 4 4 4 8 4 7 5 10 22 30 25 15 14 12 9 6 8 11 14 17 18 21 24 23 19 17 13 9 5 3 4 5 6 7 9 9 7 5 6 7 9 10
16 17 13 10 10 8 6 5 7 4 4 5 5 4 5 2 8 6 3 20 18 26 24 15 15 15 12 14 16 20 22 22 21 19 18 14 11 8 4 1 3 5 6 8 10 10 11 10 9 9 9 11 14 17
11 10 15 16 9 6 4 3 2 5 8 8 6 9 5 8 8 4 10 19 27 25 14 8 13 17 21 22 23 22 21 18 15 13 10 7 3 1 3 6 8 9 9 10 10 12 14 14 14 15 16 16 18 21
10 20 9 24 12 14 4 6 8 8 6 13 5 11 7 7 3 16 12 25 20 13 12 15 17 18 20 19 17 14 12 11 10 9 9 9 8 6 7 9 10 11 11 11 12 13 14 16 19 20 22 23 20 19
11 28 12 7 7 13 12 8 5 7 12 7 4 6 6 9 23 29 22 14 13 12 13 14 18 18 15 14 14 13 12 10 9 8 8 9 10 10 10 10 10 9 9 10 12 14 17 20 22 24 25 27 27 31
17 28 11 10 8 8 7 10 6 8 13 14 14 25 25 26 51 50 30 21 18 19 17 14 14 14 15 12 12 11 13 14 14 13 14 15 18 18 18 18 17 19 20 20 20 21 23 25 26 29 34 39 42 47
21 17 5 11 6 8 11 9 14 14 11 13 18 15 9 7 27 62 48 31 27 24 24 25 22 18 16 14 13 12 14 16 17 17 18 19 21 22 23 23 24 25 26 27 28 30 33 36 40 44 49 53 54 55
21 15 6 7 6 10 15 10 6 7 7 6 7 7 8 9 12 37 57 56 56 55 50 46 45 40 31 24 20 22 25 27 29 30 31 32 32 33 34 35 36 38 41 43 45 48 50 53 56 58 60 61 60 60
10 11 10 6 5 6 17 13 4 6 8 7 10 12 13 10 13 17 41 36 35 39 37 34 35 37 34 31 29 28 35 37 38 40 41 43 44 45 44 43 43 45 47 49 51 53 55 57 59 60 61 62 62 62
Wind_Direction_500mb
246 243 239 236 236 230 233 235 236 227 225 228 222 216 214 213 212 218 224 216 209 214 240 220 212 174 153 159 139 155 93 314 59 124 149 198 178 211 156 202 178 159 173 200 104 95 270 182 133 161 222 177 202 207
245 241 240 238 232 225 229 228 230 231 237 238 231 232 216 209 213 216 219 221 214 224 252 227 231 225 222 215 178 170 183 159 171 137 205 108 271 71 162 228 234 259 196 183 184 204 199 180 213 242 229 230 246 247
236 235 236 239 237 231 231 228 231 230 228 232 229 229 226 219 216 213 224 228 217 221 254 253 239 227 216 214 218 169 204 186 194 178 159 186 195 122 156 243 191 271 149 219 75 226 222 249 260 267 261 259 270 276
229 235 235 239 238 232 234 236 238 235 230 229 228 228 230 229 227 229 233 235 222 197 214 255 244 233 229 215 217 218 226 204 203 184 154 151 161 187 202 185 194 218 171 185 251 255 264 266 265 266 269 271 275 275
227 233 234 230 230 230 236 238 236 234 232 235 234 232 234 230 232 232 233 231 233 212 218 256 254 233 228 216 216 217 220 216 188 160 149 210 190 122 65 112 245 226 236 240 248 252 238 252 269 269 275 269 267 267
229 231 229 232 231 225 225 225 228 232 235 240 248 248 242 237 233 227 229 233 231 235 229 236 250 216 213 210 211 217 219 208 196 190 197 229 229 176 173 206 245 250 249 244 250 256 256 260 266 269 274 271 273 272
226 225 228 223 224 225 227 226 230 233 236 239 240 237 242 249 237 220 203 189 213 223 222 208 204 207 210 208 218 217 215 211 204 199 203 210 182 194 187 225 247 252 257 258 259 257 262 263 255 270 270 271 273 270
218 213 218 218 225 229 231 227 226 227 234 243 239 236 236 239 240 239 243 254 256 208 223 233 136 170 183 188 195 199 197 200 206 216 200 210 176 200 233 236 250 256 259 261 261 256 257 267 272 271 268 265 263 264
202 198 201 211 220 216 225 232 230 232 238 241 235 233 229 227 228 236 233 243 245 228 227 185 155 223 171 137 174 164 181 190 196 205 206 169 183 214 212 232 245 245 242 251 261 264 265 263 266 264 263 259 255 260
187 189 200 204 205 207 210 216 222 227 229 228 219 187 207 215 216 194 188 199 210 211 222 209 184 178 170 162 150 131 175 210 202 222 163 217 232 236 239 245 247 250 255 251 251 258 261 258 257 253 253 257 259 262
177 172 183 193 200 207 216 222 227 223 222 203 207 196 177 161 165 182 196 193 194 210 200 217 198 147 180 149 170 195 173 186 205 224 192 205 248 236 238 242 248 252 256 260 262 263 264 267 261 252 250 253 257 260
202 204 205 210 216 224 239 230 213 210 204 190 175 162 178 187 198 193 184 193 169 207 200 161 177 192 167 164 142 173 185 190 216 144 168 225 241 239 238 239 246 250 253 259 261 259 257 259 261 255 251 252 253 253
216 221 227 235 238 241 232 220 208 209 211 198 212 197 199 171 202 209 202 197 194 176 166 160 174 159 149 177 172 178 202 208 122 187 218 225 249 238 231 235 237 242 243 241 240 242 244 243 241 240 243 247 251 253
215 215 220 217 219 222 222 211 203 199 198 187 182 200 198 193 230 194 187 194 210 181 175 177 127 151 163 178 180 210 190 130 201 209 221 222 214 221 221 226 227 225 223 224 226 226 227 226 229 235 242 246 250 258
150 173 194 207 208 212 215 217 212 209 198 185 181 220 202 218 228 189 200 183 195 209 169 134 129 158 160 201 191 127 177 222 213 223 225 247 226 218 214 212 207 208 212 217 219 216 216 220 226 231 235 244 259 273
240 251 208 209 214 211 214 218 217 216 218 197 201 194 177 76 305 243 222 209 162 165 153 153 194 203 189 190 188 200 185 206 235 214 285 162 177 181 190 192 196 200 203 201 203 208 212 216 220 230 245 270 285 291
296 276 239 231 206 225 224 217 215 235 228 195 176 176 139 116 106 170 178 173 180 170 173 169 193 211 149 180 204 172 207 228 1 164 143 139 169 168 179 184 182 183 184 186 191 192 193 200 217 249 279 300 303 304
226 240 249 243 231 235 240 212 208 236 211 132 130 149 172 180 171 203 201 205 190 206 223 240 165 191 200 186 218 191 107 118 115 117 98 129 151 155 158 164 162 166 170 170 169 174 180 219 264 295 308 314 312 315
217 205 218 209 193 192 196 196 199 137 113 338 117 126 125 149 199 222 243 220 206 202 228 250 252 207 195 43 67 80 120 145 164 156 140 145 150 161 161 160 162 165 165 164 165 165 172 214 283 325 345 345 329 341
210 250 266 256 206 187 152 122 142 127 133 134 105 104 109 86 108 116 190 214 186 237 273 313 44 32 9 50 93 104 152 148 147 138 146 163 161 153 150 147 151 155 159 158 152 149 156 166 173 99 50 17 351 356
240 260 266 234 206 137 108 100 84 90 118 119 115 103 98 90 65 58 69 90 84 32 42 22 21 21 50 69 132 140 152 152 151 154 189 172 168 163 162 160 158 159 172 167 163 159 158 150 142 94 44 336 352 1
204 216 167 161 118 90 84 60 86 92 86 84 81 86 56 39 38 26 33 57 51 28 17 0 351 356 44 95 130 133 117 107 102 99 110 147 163 165 169 165 161 170 174 165 161 160 162 165 183 219 249 290 334 345
135 141 93 71 89 50 42 61 80 44 82 92 79 68 42 23 15 52 78 65 63 2 356 0 4 29 106 113 113 106 101 95 105 107 110 140 147 147 154 158 157 156 163 168 175 184 198 221 222 219 225 249 318 334
107 63 40 43 35 61 46 38 48 64 64 38 57 76 12 322 356 61 75 57 11 11 16 29 25 41 72 80 95 103 109 115 121 123 119 116 123 130 133 138 143 152 168 187 222 228 226 222 218 211 232 289 317 329
84 14 22 15 19 27 38 22 11 46 59 355 84 58 9 350 74 61 66 3 358 14 19 29 34 27 33 68 103 115 116 117 114 114 111 109 112 120 125 130 139 165 212 229 234 232 223 214 212 232 269 302 320 323
67 10 34 350 7 47 359 53 28 12 349 63 37 337 348 24 64 53 10 345 349 352 358 12 29 51 64 86 100 106 106 106 106 106 105 105 106 105 107 151 247 255 267 256 248 239 232 229 239 258 281 303 312 315
52 353 6 23 354 323 24 16 4 46 51 25 349 349 7 64 56 289 347 359 355 358 14 49 55 71 79 89 102 105 102 97 93 90 94 92 84 46 293 285 285 279 275 263 257 248 241 248 261 275 288 296 304 307
64 25 15 337 16 22 34 37 36 33 14 346 282 33 64 38 357 333 328 332 350 25 73 79 84 86 81 80 76 72 68 70 68 67 69 56 39 12 338 312 295 283 273 265 260 257 256 262 273 282 290 296 300 300
31 353 354 354 42 49 40 25 42 28 354 358 14 67 81 57 25 14 5 20 42 62 87 85 76 75 72 63 62 60 60 52 44 46 28 9 351 337 322 309 302 297 290 284 281 279 275 276 280 285 288 293 300 303
359 358 357 14 46 36 5 17 16 29 45 65 89 108 103 74 43 36 43 56 63 71 77 80 86 75 66 60 54 49 40 30 20 10 358 342 327 317 311 305 296 289 286 283 279 275 276 280 283 286 291 297 301 304
350 348 27 37 77 33 15 60 74 75 73 77 97 96 112 108 48 33 37 48 57 63 66 61 56 47 42 42 46 52 42 25 13 356 343 331 323 316 309 302 297 293 289 287 285 284 284 284 285 287 290 293 296 298
358 21 24 37 12 27 30 32 45 69 66 66 56 73 82 79 65 35 50 59 59 58 54 49 49 48 47 47 27 359 347 336 330 324 318 312 306 301 297 292 288 284 282 281 282 283 284 285 287 289 291 293 295 297
352 14 27 25 21 25 3 2 66 83 58 60 51 57 63 73 74 44 24 13 17 18 16 12 8 3 360 354 348 337 330 323 317 311 309 305 302 301 300 298 292 289 288 286 285 285 286 287 288 289 291 292 294 295
Wind_Speed_850mb
52 55 54 53 45 52 40 44 42 43 43 43 44 40 42 44 45 47 40 31 38 14 21 19 21 14 19 25 9 20 12 2 5 5 8 8 7 11 7 9 13 14 13 8 4 4 14 22 8 14 17 15 13 25
63 53 50 52 53 54 54 51 49 50 48 44 49 44 52 47 45 49 48 39 38 27 12 17 41 34 30 40 34 48 10 16 27 6 2 5 1 3 8 7 2 4 14 10 18 13 11 35 17 28 24 22 24 30
63 57 52 47 42 48 51 55 55 52 47 44 40 41 45 54 42 49 51 51 41 48 36 50 48 43 44 42 36 23 14 24 22 16 15 6 6 6 7 8 3 10 8 8 8 10 20 42 51 52 53 52 51 47
58 56 64 59 54 42 40 39 47 50 53 50 46 44 43 42 42 43 53 53 49 14 11 24 32 47 48 59 55 48 35 36 24 27 8 6 6 17 7 7 12 17 13 7 10 25 39 53 66 69 68 62 63 57
58 53 53 56 58 55 51 48 41 34 35 42 47 49 44 47 47 48 54 69 64 51 6 7 17 43 40 61 72 61 52 45 41 13 4 7 11 7 0 3 12 32 29 18 23 46 33 42 64 60 52 52 49 44
58 56 53 53 46 47 47 44 43 40 42 44 41 38 35 45 57 47 27 70 76 74 20 9 22 34 44 52 61 75 81 54 45 18 9 12 16 25 8 8 42 62 65 72 54 73 69 72 70 69 64 61 55 53
60 58 54 47 49 46 44 43 42 39 37 37 37 38 39 37 34 42 10 16 33 73 22 6 7 22 55 62 67 65 64 56 38 19 19 18 14 28 5 12 52 57 64 69 75 74 53 76 53 69 63 64 63 55
60 55 47 42 40 41 44 45 48 44 39 38 41 41 40 37 38 49 54 47 38 43 16 5 3 6 35 25 19 39 29 39 36 25 15 18 17 16 12 34 64 72 70 72 77 74 76 76 69 66 59 53 54 55
56 44 39 39 36 35 35 31 30 30 33 34 38 37 36 43 38 34 35 31 35 33 7 8 9 8 25 9 16 15 25 9 19 11 10 19 8 14 22 48 62 68 65 74 75 66 64 64 68 67 63 56 53 53
36 37 34 33 31 30 27 26 24 23 28 27 31 22 16 24 35 23 25 21 33 27 24 6 20 10 29 16 8 10 9 5 7 9 16 11 18 65 60 73 74 70 70 62 54 57 61 61 57 55 53 46 45 46
30 32 30 26 23 23 23 29 30 26 28 26 19 21 17 31 35 22 15 15 16 5 20 20 51 10 28 8 7 18 7 7 8 9 14 8 10 38 78 79 95 90 75 65 58 59 60 54 40 39 43 42 40 39
13 20 27 29 28 26 26 32 38 39 23 25 14 19 27 17 14 13 11 6 8 13 12 14 21 36 23 16 7 15 10 10 12 12 9 8 21 59 61 76 80 80 77 68 63 56 49 43 37 30 30 33 35 34
20 20 22 26 30 32 31 33 32 41 34 20 10 9 8 14 11 11 12 6 3 6 18 16 3 27 17 19 6 11 16 13 15 11 9 12 23 45 62 67 69 61 54 49 47 43 37 32 29 28 28 28 28 28
17 20 23 22 23 27 30 34 36 37 34 18 14 13 11 7 8 10 9 10 17 15 40 36 13 8 13 10 6 8 8 7 11 9 15 8 36 45 49 58 54 54 47 41 37 34 31 28 24 22 23 24 23 23
14 12 15 17 20 21 25 30 36 42 25 14 14 10 10 10 5 4 10 10 20 28 40 12 6 15 5 8 9 5 6 8 11 11 8 15 41 48 45 44 47 42 39 37 33 30 26 23 20 19 18 18 17 19
1 6 6 15 20 20 21 24 29 43 16 14 14 5 3 6 6 3 8 7 18 31 20 7 7 8 9 7 12 12 11 13 9 7 4 4 16 24 31 30 29 28 28 29 27 24 21 18 14 13 12 12 16 21
17 11 16 20 13 19 20 24 17 13 12 14 4 15 15 10 5 4 6 3 16 23 6 5 9 13 4 5 6 8 8 4 5 4 9 12 13 20 25 27 27 26 25 21 18 16 13 11 9 9 11 13 17 20
24 20 19 22 19 20 11 11 14 6 3 1 6 8 12 14 11 8 13 15 18 15 5 6 6 10 8 10 6 2 7 10 11 7 4 8 13 19 20 21 21 19 17 16 14 11 7 4 5 7 9 12 13 15
16 7 15 11 20 25 14 13 10 7 4 2 10 11 6 5 13 13 11 13 19 10 5 3 7 4 3 5 5 7 8 8 10 10 11 13 14 15 18 19 19 20 19 18 15 10 5 3 3 5 7 8 8 8
17 10 19 11 9 17 9 7 8 9 4 4 7 9 5 3 5 5 4 7 7 3 4 2 4 5 7 2 7 5 3 9 15 17 13 14 15 16 17 16 16 16 15 14 11 9 6 3 1 2 3 4 5 7
18 19 21 9 6 5 9 6 9 8 9 8 11 6 4 7 8 9 7 6 6 11 5 13 10 7 4 2 5 8 8 12 8 4 6 22 23 20 18 18 17 14 10 9 8 9 10 8 5 3 2 3 4 6
19 17 12 13 5 7 11 12 11 8 6 8 6 6 8 3 7 9 8 14 11 9 9 11 9 7 5 3 10 12 13 15 13 13 11 15 22 21 18 14 11 11 12 11 11 10 7 5 3 3 3 3 3 4
20 15 7 8 7 11 7 8 6 6 4 2 4 4 4 5 7 6 8 11 10 20 16 9 4 2 3 8 10 10 10 11 10 11 13 15 17 16 14 14 14 12 10 9 7 5 4 5 6 5 3 1 2 4
12 10 13 11 16 5 5 9 7 6 6 6 5 4 5 5 12 6 6 7 16 27 17 10 9 6 6 6 7 7 9 11 11 16 19 16 17 20 20 16 13 10 7 4 4 5 7 8 8 5 3 4 5 7
8 20 15 12 15 9 9 7 8 8 5 4 4 4 4 8 4 7 5 10 22 30 25 15 14 12 9 6 8 11 14 17 18 21 24 23 19 17 13 9 5 3 4 5 6 7 9 9 7 5 6 7 9 10
16 17 13 10 10 8 6 5 7 4 4 5 5 4 5 2 8 6 3 20 18 26 24 15 15 15 12 14 16 20 22 22 21 19 18 14 11 8 4 1 3 5 6 8 10 10 11 10 9 9 9 11 14 17
11 10 15 16 9 6 4 3 2 5 8 8 6 9 5 8 8 4 10 19 27 25 14 8 13 17 21 22 23 22 21 18 15 13 10 7 3 1 3 6 8 9 9 10 10 12 14 14 14 15 16 16 18 21
10 20 9 24 12 14 4 6 8 8 6 13 5 11 7 7 3 16 12 25 20 13 12 15 17 18 20 19 17 14 12 11 10 9 9 9 8 6 7 9 10 11 11 11 12 13 14 16 19 20 22 23 20 19
11 28 12 7 7 13 12 8 5 7 12 7 4 6 6 9 23 29 22 14 13 12 13 14 18 18 15 14 14 13 12 10 9 8 8 9 10 10 10 10 10 9 9 10 12 14 17 20 22 24 25 27 27 31
17 28 11 10 8 8 7 10 6 8 13 14 14 25 25 26 51 50 30 21 18 19 17 14 14 14 15 12 12 11 13 14 14 13 14 15 18 18 18 18 17 19 20 20 20 21 23 25 26 29 34 39 42 47
21 17 5 11 6 8 11 9 14 14 11 13 18 15 9 7 27 62 48 31 27 24 24 25 22 18 16 14 13 12 14 16 17 17 18 19 21 22 23 23 24 25 26 27 28 30 33 36 40 44 49 53 54 55
21 15 6 7 6 10 15 10 6 7 7 6 7 7 8 9 12 37 57 56 56 55 50 46 45 40 31 24 20 22 25 27 29 30 31 32 32 33 34 35 36 38 41 43 45 48 50 53 56 58 60 61 60 60
10 11 10 6 5 6 17 13 4 6 8 7 10 12 13 10 13 17 41 36 35 39 37 34 35 37 34 31 29 28 35 37 38 40 41 43 44 45 44 43 43 45 47 49 51 53 55 57 59 60 61 62 62 62
Wind_Direction_850mb
246 243 239 236 236 230 233 235 236 227 225 228 222 216 214 213 212 218 224 216 209 214 240 220 212 174 153 159 139 155 93 314 59 124 149 198 178 211 156 202 178 159 173 200 104 95 270 182 133 161 222 177 202 207
245 241 240 238 232 225 229 228 230 231 237 238 231 232 216 209 213 216 219 221 214 224 252 227 231 225 222 215 178 170 183 159 171 137 205 108 271 71 162 228 234 259 196 183 184 204 199 180 213 242 229 230 246 247
236 235 236 239 237 231 231 228 231 230 228 232 229 229 226 219 216 213 224 228 217 221 254 253 239 227 216 214 218 169 204 186 194 178 159 186 195 122 156 243 191 271 149 219 75 226 222 249 260 267 261 259 270 276
229 235 235 239 238 232 234 236 238 235 230 229 228 228 230 229 227 229 233 235 222 197 214 255 244 233 229 215 217 218 226 204 203 184 154 151 161 187 202 185 194 218 171 185 251 255 264 266 265 266 269 271 275 275
227 233 234 230 230 230 236 238 236 234 232 235 234 232 234 230 232 232 233 231 233 212 218 256 254 233 228 216 216 217 220 216 188 160 149 210 190 122 65 112 245 226 236 240 248 252 238 252 269 269 275 269 267 267
229 231 229 232 231 225 225 225 228 232 235 240 248 248 242 237 233 227 229 233 231 235 229 236 250 216 213 210 211 217 219 208 196 190 197 229 229 176 173 206 245 250 249 244 250 256 256 260 266 269 274 271 273 272
226 225 228 223 224 225 227 226 230 233 236 239 240 237 242 249 237 220 203 189 213 223 222 208 204 207 210 208 218 217 215 211 204 199 203 210 182 194 187 225 247 252 257 258 259 257 262 263 255 270 270 271 273 270
218 213 218 218 225 229 231 227 226 227 234 243 239 236 236 239 240 239 243 254 256 208 223 233 136 170 183 188 195 199 197 200 206 216 200 210 176 200 233 236 250 256 259 261 261 256 257 267 272 271 268 265 263 264
202 198 201 211 220 216 225 232 230 232 238 241 235 233 229 227 228 236 233 243 245 228 227 185 155 223 171 137 174 164 181 190 196 205 206 169 183 214 212 232 245 245 242 251 261 264 265 263 266 264 263 259 255 260
187 189 200 204 205 207 210 216 222 227 229 228 219 187 207 215 216 194 188 199 210 211 222 209 184 178 170 162 150 131 175 210 202 222 163 217 232 236 239 245 247 250 255 251 251 258 261 258 257 253 253 257 259 262
177 172 183 193 200 207 216 222 227 223 222 203 207 196 177 161 165 182 196 193 194 210 200 217 198 147 180 149 170 195 173 186 205 224 192 205 248 236 238 242 248 252 256 260 262 263 264 267 261 252 250 253 257 260
202 204 205 210 216 224 239 230 213 210 204 190 175 162 178 187 198 193 184 193 169 207 200 161 177 192 167 164 142 173 185 190 216 144 168 225 241 239 238 239 246 250 253 259 261 259 257 259 261 255 251 252 253 253
216 221 227 235 238 241 232 220 208 209 211 198 212 197 199 171 202 209 202 197 194 176 166 160 174 159 149 177 172 178 202 208 122 187 218 225 249 238 231 235 237 242 243 241 240 242 244 243 241 240 243 247 251 253
215 215 220 217 219 222 222 211 203 199 198 187 182 200 198 193 230 194 187 194 210 181 175 177 127 151 163 178 180 210 190 130 201 209 221 222 214 221 221 226 227 225 223 224 226 226 227 226 229 235 242 246 250 258
150 173 194 207 208 212 215 217 212 209 198 185 181 220 202 218 228 189 200 183 195 209 169 134 129 158 160 201 191 127 177 222 213 223 225 247 226 218 214 212 207 208 212 217 219 216 216 220 226 231 235 244 259 273
240 251 208 209 214 211 214 218 217 216 218 197 201 194 177 76 305 243 222 209 162 165 153 153 194 203 189 190 188 200 185 206 235 214 285 162 177 181 190 192 196 200 203 201 203 208 212 216 220 230 245 270 285 291
296 276 239 231 206 225 224 217 215 235 228 195 176 176 139 116 106 170 178 173 180 170 173 169 193 211 149 180 204 172 207 228 1 164 143 139 169 168 179 184 182 183 184 186 191 192 193 200 217 249 279 300 303 304
226 240 249 243 231 235 240 212 208 236 211 132 130 149 172 180 171 203 201 205 190 206 223 240 165 191 200 186 218 191 107 118 115 117 98 129 151 155 158 164 162 166 170 170 169 174 180 219 264 295 308 314 312 315
217 205 218 209 193 192 196 196 199 137 113 338 117 126 125 149 199 222 243 220 206 202 228 250 252 207 195 43 67 80 120 145 164 156 140 145 150 161 161 160 162 165 165 164 165 165 172 214 283 325 345 345 329 341
210 250 266 256 206 187 152 122 142 127 133 134 105 104 109 86 108 116 190 214 186 237 273 313 44 32 9 50 93 104 152 148 147 138 146 163 161 153 150 147 151 155 159 158 152 149 156 166 173 99 50 17 351 356
240 260 266 234 206 137 108 100 84 90 118 119 115 103 98 90 65 58 69 90 84 32 42 22 21 21 50 69 132 140 152 152 151 154 189 172 168 163 162 160 158 159 172 167 163 159 158 150 142 94 44 336 352 1
204 216 167 161 118 90 84 60 86 92 86 84 81 86 56 39 38 26 33 57 51 28 17 0 351 356 44 95 130 133 117 107 102 99 110 147 163 165 169 165 161 170 174 165 161 160 162 165 183 219 249 290 334 345
135 141 93 71 89 50 42 61 80 44 82 92 79 68 42 23 15 52 78 65 63 2 356 0 4 29 106 113 113 106 101 95 105 107 110 140 147 147 154 158 157 156 163 168 175 184 198 221 222 219 225 249 318 334
107 63 40 43 35 61 46 38 48 64 64 38 57 76 12 322 356 61 75 57 11 11 16 29 25 41 72 80 95 103 109 115 121 123 119 116 123 130 133 138 143 152 168 187 222 228 226 222 218 211 232 289 317 329
84 14 22 15 19 27 38 22 11 46 59 355 84 58 9 350 74 61 66 3 358 14 19 29 34 27 33 68 103 115 116 117 114 114 111 109 112 120 125 130 139 165 212 229 234 232 223 214 212 232 269 302 320 323
67 10 34 350 7 47 359 53 28 12 349 63 37 337 348 24 64 53 10 345 349 352 358 12 29 51 64 86 100 106 106 106 106 106 105 105 106 105 107 151 247 255 267 256 248 239 232 229 239 258 281 303 312 315
52 353 6 23 354 323 24 16 4 46 51 25 349 349 7 64 56 289 347 359 355 358 14 49 55 71 79 89 102 105 102 97 93 90 94 92 84 46 293 285 285 279 275 263 257 248 241 248 261 275 288 296 304 307
64 25 15 337 16 22 34 37 36 33 14 346 282 33 64 38 357 333 328 332 350 25 73 79 84 86 81 80 76 72 68 70 68 67 69 56 39 12 338 312 295 283 273 265 260 257 256 262 273 282 290 296 300 300
31 353 354 354 42 49 40 25 42 28 354 358 14 67 81 57 25 14 5 20 42 62 87 85 76 75 72 63 62 60 60 52 44 46 28 9 351 337 322 309 302 297 290 284 281 279 275 276 280 285 288 293 300 303
359 358 357 14 46 36 5 17 16 29 45 65 89 108 103 74 43 36 43 56 63 71 77 80 86 75 66 60 54 49 40 30 20 10 358 342 327 317 311 305 296 289 286 283 279 275 276 280 283 286 291 297 301 304
350 348 27 37 77 33 15 60 74 75 73 77 97 96 112 108 48 33 37 48 57 63 66 61 56 47 42 42 46 52 42 25 13 356 343 331 323 316 309 302 297 293 289 287 285 284 284 284 285 287 290 293 296 298
358 21 24 37 12 27 30 32 45 69 66 66 56 73 82 79 65 35 50 59 59 58 54 49 49 48 47 47 27 359 347 336 330 324 318 312 306 301 297 292 288 284 282 281 282 283 284 285 287 289 291 293 295 297
352 14 27 25 21 25 3 2 66 83 58 60 51 57 63 73 74 44 24 13 17 18 16 12 8 3 360 354 348 337 330 323 317 311 309 305 302 301 300 298 292 289 288 286 285 285 286 287 288 289 291 292 294 295